Кувасай

Узбекистан     40°17′46″N   71°58′57″E
темп.,
°C
ветер,
м/с
пор.,
м/с
влажн.,
%
обл.,
%
осадки,
мм/ч
давл.,
гПа
погр.,
м
27 февраля, сб
сб2700:00−5св11471 0.0 1032130
03:00−5зсз00503 0.0 103088
06:00−5зсз005236 0.0 103175
09:00−5с1151100 0.0 1030151
12:00−3ссз1144100 0.0 1028665
15:00−1сз1136100 0.0 1027752
18:000ссв2138100 0.0 1031448
21:00−2в225783 0.1 103660
28 февраля, вс
вс2800:00−3зюз115842 0.1 103725
03:00−3зюз12570 0.0 103633
06:00−4зюз11560 0.0 103433
09:00−3зюз11500 0.0 103283
12:000зсз11400 0.0 1027503
15:00+3сз01360 0.0 1023709
18:00+4ссв11380 0.0 1024446
21:00+1св22470 0.0 102824
1 марта, пн
пн100:000в11480 0.0 102821
03:00−1юз00490 0.0 102822
06:00−1з11460 0.0 102722
09:00+2сз114143 0.0 102822
12:00+5сз103337 0.0 1024334
15:00+8ссз112952 0.0 1022534
18:00+7ссз213526 0.0 1022382
21:00+3всв01460 0.0 102722
2 марта, вт
вт200:00+2в11440 0.0 102822
03:00+2ююв114533 0.0 102822
06:00+2ю014667 0.0 102822
09:00+4зсз1144100 0.0 102722
12:00+8ссз103198 0.0 1024302
15:00+10ссз2130100 0.0 1021591
18:00+9ссз1137100 0.0 1021328
21:00+6в1146100 0.0 102322
3 марта, ср
ср300:00+5с1147100 0.0 102422
03:00+4зюз1147100 0.0 102322
06:00+4зюз2245100 0.0 102222
09:00+5зюз1148100 0.0 102222
12:00+8сз223696 0.0 1019618
15:00+9зсз113448 0.0 1017978
18:00+10зсз223674 0.0 1017997
21:00+7ююз2248100 0.0 102024